Wetbulb
69.67 70.41 70.75 70.34 69.95 70.04 70.12 70.30 70.54 70.33 70.26 70.62 70.50 70.20 70.41 70.70 70.09 69.29 68.94 68.58 68.34 68.13 67.98 67.20 66.88 66.49 66.53 65.90 65.50 66.19 63.75 60.24
67.78 68.59 68.76 68.07 68.52 69.49 69.38 69.55 69.39 69.53 69.55 69.44 69.52 69.85 70.02 69.82 69.52 69.41 68.78 68.34 67.87 67.42 66.97 66.58 66.73 66.41 66.14 65.74 65.57 65.96 60.11 58.68
67.44 67.56 67.89 67.66 67.60 69.33 69.48 69.89 69.39 69.02 69.00 68.91 68.42 67.96 69.15 69.39 68.11 68.53 68.36 67.72 67.57 67.64 67.08 66.85 66.31 66.23 66.39 66.16 66.25 62.91 60.72 60.48
67.66 67.75 67.74 67.72 68.84 67.46 66.99 68.25 68.11 67.88 67.57 66.85 66.99 67.11 67.47 68.66 68.46 68.03 68.05 67.52 67.56 67.20 67.05 66.56 66.34 63.90 62.75 64.71 63.57 62.52 62.19 62.52
68.57 68.62 68.98 68.15 66.72 66.28 67.08 66.74 66.77 67.39 67.96 67.54 66.88 66.58 63.22 65.08 65.54 66.49 66.25 67.76 66.40 66.43 66.07 65.73 65.30 63.45 62.86 62.19 62.17 61.91 63.35 64.62
68.19 68.23 68.20 69.14 68.87 68.27 69.34 68.30 67.69 68.16 66.68 66.53 66.55 68.07 67.22 64.78 65.37 64.35 65.51 66.74 66.07 66.50 65.74 66.02 65.52 66.13 66.22 66.66 66.08 66.00 65.22 65.49
67.43 67.28 67.65 67.94 68.35 68.75 68.78 67.72 66.71 64.97 63.41 62.79 63.25 64.30 66.41 65.80 67.61 66.65 67.18 67.47 67.46 66.84 66.75 67.15 67.46 67.84 67.90 67.99 68.05 67.44 67.25 67.80
67.45 67.38 67.25 67.70 67.19 66.35 66.54 65.37 63.76 62.34 61.70 61.85 62.36 62.16 62.90 63.23 63.70 62.69 62.09 63.35 62.11 61.97 61.71 61.90 64.25 65.67 65.33 65.23 65.74 66.09 66.61 67.20
66.33 66.30 67.17 65.81 64.08 64.07 63.56 62.84 61.53 60.31 59.71 57.41 59.19 60.34 60.05 62.16 59.81 58.88 59.24 58.70 57.02 57.75 56.95 58.83 58.41 59.56 56.77 57.35 56.81 57.88 60.03 64.44
64.02 64.87 63.01 62.54 61.45 60.26 57.94 56.82 56.19 56.23 55.98 55.79 56.41 56.92 58.62 57.09 56.47 55.93 56.73 54.13 53.79 53.55 53.14 54.17 53.33 52.76 51.51 51.65 52.17 55.07 57.80 55.13
60.42 60.35 60.10 59.33 58.19 57.37 56.27 55.29 55.03 55.10 54.46 54.02 54.27 55.19 57.11 54.95 53.45 53.64 52.81 52.33 51.73 51.28 50.77 50.78 50.44 49.68 50.40 50.95 49.85 50.61 54.21 54.13
57.72 56.68 55.74 54.06 53.93 52.98 52.89 52.39 52.19 52.43 52.15 52.60 52.76 52.84 53.72 52.41 51.72 51.86 51.63 50.80 49.40 49.19 48.79 49.69 49.76 48.69 51.91 49.62 48.74 51.03 53.05 51.65
54.18 53.46 52.57 53.06 53.25 52.65 50.92 49.78 49.94 51.02 52.02 52.61 51.20 51.80 51.81 51.39 50.23 50.71 50.25 49.57 48.91 49.79 49.10 48.80 49.06 48.69 46.06 47.26 48.18 49.33 50.39 49.69
52.09 51.92 51.84 52.55 52.93 52.23 52.24 52.47 51.05 50.21 49.64 49.73 50.49 50.40 50.71 50.93 49.77 49.37 49.15 49.18 48.54 48.50 48.84 47.79 48.42 49.12 44.93 44.93 43.90 46.71 46.99 48.49
52.49 52.73 53.09 53.11 53.28 53.39 51.50 50.93 50.83 47.90 47.22 48.33 49.60 50.26 50.28 49.76 49.33 48.95 48.77 48.74 47.53 47.09 47.48 46.74 45.91 47.06 47.35 45.31 41.09 39.74 42.87 46.62
53.07 53.38 51.05 52.66 51.56 51.20 50.37 48.41 48.37 46.10 46.50 46.95 47.56 49.01 49.10 49.36 49.18 49.11 48.25 48.01 47.04 47.15 48.32 47.20 46.30 44.67 45.54 47.17 45.23 43.47 40.14 39.32
51.17 50.53 50.69 51.13 52.74 51.80 48.98 47.57 46.97 46.74 46.73 45.73 46.41 47.24 47.94 48.79 48.51 47.52 47.15 47.02 46.87 46.85 46.16 46.27 45.98 44.69 43.68 42.93 42.64 42.37 41.11 39.09
50.81 50.33 50.64 52.00 50.88 50.93 47.80 46.54 46.38 45.84 44.99 45.15 45.21 46.05 46.63 47.52 47.57 46.21 46.23 46.50 45.85 45.76 45.69 45.15 43.53 42.89 42.86 42.52 40.85 39.19 38.20 36.66
51.68 50.62 49.50 49.54 48.84 48.85 47.48 46.23 45.70 44.77 44.43 44.77 44.86 44.51 44.96 45.00 45.15 44.89 45.31 45.97 45.43 45.59 44.71 44.19 42.73 41.89 41.25 41.15 41.28 40.66 40.30 38.69
49.40 48.56 47.39 47.53 46.98 46.82 47.04 46.57 46.24 45.56 44.53 44.75 44.93 44.84 44.73 45.26 44.60 44.57 44.86 45.50 44.90 44.77 44.17 43.90 42.49 41.18 40.13 39.68 39.79 39.63 39.95 38.55
MSLP
1016.58 1016.88 1017.27 1017.53 1017.76 1017.90 1018.12 1018.29 1018.37 1018.50 1018.69 1018.81 1018.85 1018.90 1018.99 1019.13 1019.28 1019.45 1019.43 1019.50 1019.58 1019.71 1019.78 1019.83 1019.74 1019.47 1019.29 1019.10 1018.78 1018.57 1018.60 1019.21
1016.55 1017.08 1017.40 1017.72 1017.93 1018.09 1018.22 1018.36 1018.51 1018.64 1018.75 1018.79 1018.93 1019.13 1019.20 1019.19 1019.25 1019.34 1019.39 1019.45 1019.54 1019.63 1019.62 1019.60 1019.51 1019.31 1019.29 1019.26 1019.02 1018.59 1018.46 1018.28
1016.18 1016.81 1017.32 1017.62 1017.87 1017.98 1018.19 1018.36 1018.50 1018.58 1018.74 1018.87 1019.01 1019.18 1019.26 1019.22 1019.22 1019.23 1019.25 1019.36 1019.50 1019.50 1019.41 1019.31 1019.35 1019.35 1019.31 1019.10 1019.06 1018.98 1018.79 1018.28
1015.96 1016.41 1016.84 1017.26 1017.35 1017.77 1018.03 1018.20 1018.39 1018.47 1018.65 1018.88 1018.83 1018.99 1019.01 1018.87 1019.03 1019.01 1019.01 1019.21 1019.28 1019.13 1019.10 1019.23 1019.36 1019.30 1018.99 1018.72 1018.73 1018.72 1018.56 1018.21
1015.79 1016.09 1016.42 1016.79 1017.23 1017.82 1017.99 1018.10 1018.30 1018.41 1018.48 1018.57 1018.57 1018.66 1018.85 1018.78 1019.02 1019.00 1019.16 1019.26 1019.12 1019.08 1018.93 1019.08 1018.93 1018.73 1018.66 1018.45 1018.34 1018.43 1018.30 1017.85
1015.82 1015.77 1016.42 1016.57 1016.96 1017.47 1017.48 1017.86 1018.20 1018.43 1018.51 1018.58 1018.66 1018.58 1018.63 1018.81 1018.76 1019.02 1019.36 1019.21 1019.40 1019.23 1019.35 1019.04 1019.06 1018.73 1018.84 1018.35 1018.35 1018.13 1017.96 1017.68
1015.65 1016.03 1016.47 1016.70 1016.95 1016.95 1017.22 1017.87 1018.05 1018.55 1018.84 1019.09 1019.09 1019.27 1019.16 1018.83 1018.83 1019.12 1019.30 1019.09 1019.27 1019.21 1019.03 1018.94 1018.81 1018.51 1018.44 1018.44 1018.24 1018.24 1018.05 1017.71
1015.44 1016.06 1016.45 1016.69 1016.96 1017.14 1017.53 1017.91 1018.31 1018.84 1019.18 1019.35 1019.29 1019.43 1019.38 1019.24 1019.38 1019.56 1019.38 1019.25 1019.18 1019.11 1019.16 1019.09 1019.00 1018.76 1018.64 1018.53 1018.42 1018.39 1018.19 1018.15
1015.55 1016.13 1016.50 1017.09 1017.38 1017.51 1017.80 1018.10 1018.61 1019.08 1019.43 1019.69 1019.66 1019.55 1019.48 1019.42 1019.58 1019.54 1019.45 1019.50 1019.33 1019.28 1019.34 1019.12 1019.14 1019.15 1019.12 1018.88 1018.89 1018.79 1018.65 1018.78
1015.81 1016.45 1016.87 1017.48 1017.86 1018.20 1018.49 1018.90 1019.18 1019.55 1019.95 1020.11 1020.11 1020.01 1019.88 1019.88 1019.94 1020.13 1020.11 1020.11 1020.20 1020.27 1020.33 1020.11 1020.03 1020.00 1019.88 1019.73 1019.69 1019.44 1019.42 1019.63
1016.26 1016.76 1017.23 1018.04 1018.42 1018.75 1019.06 1019.42 1019.61 1020.02 1020.39 1020.60 1020.55 1020.57 1020.33 1020.34 1020.55 1020.69 1020.63 1020.83 1021.01 1021.10 1021.03 1020.94 1020.91 1020.55 1020.26 1020.21 1020.40 1020.26 1020.18 1020.33
1016.57 1017.22 1017.75 1018.45 1018.97 1019.35 1019.64 1019.92 1020.38 1020.50 1020.77 1020.93 1020.82 1020.81 1020.92 1020.90 1021.10 1021.13 1021.12 1021.50 1021.76 1021.58 1021.56 1021.46 1021.35 1021.05 1020.74 1020.71 1020.71 1020.82 1020.85 1021.27
1017.16 1017.69 1018.21 1018.66 1019.14 1019.78 1020.20 1020.47 1020.72 1020.93 1021.04 1021.24 1021.21 1021.11 1021.35 1021.37 1021.69 1021.67 1021.75 1022.02 1022.12 1022.02 1021.86 1021.89 1021.65 1021.09 1021.17 1021.27 1021.19 1021.31 1021.59 1021.86
1017.56 1018.00 1018.20 1018.71 1018.83 1019.23 1019.59 1020.21 1020.72 1020.94 1021.30 1021.48 1021.56 1021.46 1021.66 1021.78 1021.97 1022.12 1022.11 1022.34 1022.35 1022.42 1022.34 1022.41 1022.20 1021.95 1022.21 1022.42 1022.20 1021.96 1022.16 1022.39
1017.44 1017.94 1018.05 1018.34 1018.61 1018.82 1019.54 1020.12 1020.66 1021.45 1021.69 1021.91 1021.98 1021.84 1022.02 1022.17 1022.21 1022.36 1022.52 1022.72 1022.95 1022.97 1022.92 1022.90 1022.91 1022.74 1022.69 1022.83 1023.25 1023.60 1023.33 1022.91
1017.17 1017.66 1017.98 1018.14 1018.36 1018.78 1019.26 1019.91 1020.57 1021.49 1021.87 1022.30 1022.40 1022.33 1022.40 1022.52 1022.52 1022.77 1022.89 1023.20 1023.36 1023.22 1023.18 1023.36 1023.32 1023.77 1023.55 1023.64 1023.99 1024.49 1024.80 1024.60
1017.17 1017.50 1017.75 1017.97 1018.30 1018.59 1019.32 1020.05 1020.62 1021.29 1022.06 1022.49 1022.71 1022.80 1022.85 1022.97 1023.02 1023.11 1023.28 1023.53 1023.54 1023.64 1023.82 1024.20 1024.46 1024.68 1024.70 1024.77 1024.83 1025.18 1025.48 1025.82
1016.95 1017.20 1017.45 1017.69 1018.08 1018.61 1019.23 1019.86 1020.64 1021.47 1022.21 1022.78 1022.98 1023.20 1023.40 1023.41 1023.51 1023.54 1023.57 1023.81 1023.99 1024.39 1024.54 1024.84 1025.13 1025.26 1025.53 1025.72 1025.89 1026.38 1026.78 1026.78
1016.44 1016.85 1017.13 1017.42 1017.88 1018.37 1018.93 1019.57 1020.28 1021.13 1021.99 1022.61 1023.11 1023.42 1023.68 1023.95 1023.88 1024.02 1023.97 1024.28 1024.41 1024.83 1025.09 1025.41 1025.73 1025.85 1026.06 1026.29 1026.56 1026.90 1027.06 1027.28
1015.87 1016.22 1016.74 1017.20 1017.72 1018.32 1018.83 1019.41 1020.21 1020.90 1021.48 1022.18 1022.97 1023.37 1023.69 1023.88 1024.12 1024.23 1024.32 1024.69 1024.81 1025.13 1025.36 1025.80 1025.97 1026.11 1026.52 1026.76 1027.15 1027.31 1027.38 1027.56
Wind_Speed
9 10 11 12 11 12 11 10 9 9 9 8 8 8 9 10 9 8 7 7 5 4 2 3 6 6 8 10 13 13 7 2
10 9 8 6 6 10 10 10 10 9 8 8 7 7 7 8 9 8 8 8 7 7 7 8 9 9 8 10 11 14 7 5
12 10 8 8 7 8 9 9 9 8 8 9 7 4 5 7 8 10 10 9 9 9 9 9 10 8 10 13 10 4 6 4
11 9 9 8 7 6 6 7 5 5 5 5 4 6 7 9 8 10 10 9 9 10 11 9 7 4 5 7 3 5 5 5
9 10 10 8 6 3 2 3 3 4 4 1 3 3 4 3 3 4 4 6 4 5 5 4 6 5 4 4 4 4 4 3
8 9 7 6 4 5 5 3 3 3 4 8 5 4 4 1 4 3 2 2 3 4 3 6 6 8 6 4 5 4 3 4
10 7 7 5 3 4 6 3 6 7 6 7 6 5 4 4 6 4 3 3 1 2 2 3 3 4 5 4 5 4 4 2
11 7 7 6 6 6 5 7 7 6 5 5 6 4 4 4 4 4 3 3 4 5 4 5 4 4 5 6 7 6 7 7
12 8 8 7 7 7 6 8 8 7 6 7 7 6 6 6 4 5 6 6 8 8 8 7 7 7 7 8 7 7 8 14
10 9 11 11 7 6 7 7 7 7 6 5 7 7 6 6 6 6 6 7 7 5 5 5 5 6 5 5 6 7 9 12
12 10 12 10 7 6 6 7 6 5 5 4 6 7 6 6 5 4 6 7 7 5 4 4 4 5 5 5 5 5 8 11
12 9 10 9 6 6 5 6 5 4 4 4 6 5 7 6 6 6 7 6 5 4 4 4 2 3 3 4 3 5 9 9
8 9 7 6 4 5 4 4 4 4 4 6 6 6 7 7 5 6 5 6 5 6 3 4 6 7 4 4 4 8 9 7
8 8 8 5 4 3 4 6 3 5 4 5 6 7 6 7 6 5 6 6 7 8 6 3 4 7 3 1 4 4 4 7
10 9 10 8 5 6 5 7 6 3 4 4 4 7 7 6 7 6 7 5 5 5 5 7 5 5 10 4 4 2 3 3
10 11 7 8 7 9 11 7 9 4 4 4 4 6 7 6 7 6 7 5 6 6 7 7 6 6 4 7 7 6 3 4
9 8 7 7 8 9 6 6 7 6 6 7 6 6 7 7 7 7 7 4 6 8 8 8 7 6 6 4 4 6 6 5
12 12 9 11 8 7 9 12 12 9 7 6 4 4 4 6 7 6 6 6 7 6 7 9 7 7 6 7 8 5 4 4
13 13 10 9 9 11 11 12 12 10 8 7 7 4 4 5 6 6 5 6 7 6 8 8 6 6 7 7 6 5 4 3
12 13 10 9 9 9 8 10 7 6 6 7 6 5 5 6 6 6 7 7 6 6 4 7 8 8 10 7 5 5 4 3
Wind_Direction
120 120 120 120 121 123 124 124 122 125 129 129 129 131 131 129 127 131 125 122 126 141 166 270 286 292 293 299 303 314 319 103
134 131 130 127 133 134 137 141 144 150 147 148 149 150 148 145 148 154 155 163 176 194 210 231 250 259 275 282 290 306 320 316
141 147 150 149 149 157 156 155 162 172 174 177 173 161 176 178 188 178 175 184 200 215 229 238 251 273 278 272 274 290 297 302
148 148 155 160 169 160 168 174 176 193 191 199 197 191 190 195 184 193 197 196 211 225 237 244 266 252 259 267 229 252 277 285
147 153 160 171 147 172 171 183 190 202 214 165 72 156 177 181 184 201 207 213 236 243 249 244 239 241 246 249 224 236 247 280
155 154 133 193 124 184 181 168 171 115 70 41 37 2 55 152 207 187 202 212 243 246 240 237 239 260 278 301 257 262 275 273
160 144 133 130 177 139 112 107 98 75 53 40 41 14 29 358 55 45 92 52 77 35 36 18 352 11 24 359 7 321 298 332
150 139 136 99 85 95 102 100 94 86 67 44 42 30 20 39 62 51 30 55 45 34 27 11 3 1 17 16 11 4 355 339
122 120 104 91 83 81 71 84 86 77 66 38 26 25 16 41 49 32 18 33 36 28 16 15 18 17 10 10 6 346 4 61
97 106 96 80 69 64 72 71 76 75 64 47 33 24 44 51 49 31 34 40 35 25 14 1 20 19 352 351 0 9 56 62
98 92 96 93 79 76 71 73 78 78 69 56 48 32 34 64 54 48 58 51 36 19 2 23 16 355 342 352 7 11 65 65
104 98 100 95 89 84 69 75 68 80 84 61 57 52 39 64 51 57 63 59 32 15 25 17 27 336 354 4 38 56 72 75
109 118 116 122 120 109 84 107 115 90 84 72 57 67 53 62 58 67 68 70 52 25 10 28 29 7 43 12 49 66 73 72
128 138 146 156 142 145 144 141 115 117 95 81 71 67 59 71 66 63 64 65 49 29 23 16 28 23 58 47 16 355 31 52
154 161 161 158 159 125 111 112 112 84 85 76 74 76 71 71 70 72 64 63 63 44 31 41 46 15 35 95 49 4 342 11
154 164 165 157 139 132 144 139 142 132 113 102 80 78 74 67 70 81 74 66 64 57 47 47 47 33 10 41 61 61 21 339
164 164 168 161 154 150 147 127 116 116 113 106 97 78 81 72 69 74 76 67 67 63 51 50 46 56 41 9 34 49 21 59
170 173 175 171 167 163 144 137 132 131 131 127 116 97 84 76 76 74 76 77 71 69 63 70 66 60 58 67 64 61 35 36
173 174 164 158 151 146 145 140 140 142 146 140 126 110 94 88 85 75 73 86 77 81 82 81 69 65 58 67 62 58 62 56
161 153 145 134 130 127 128 130 139 141 143 128 126 122 119 110 98 89 87 99 84 84 84 91 84 72 70 65 67 52 64 60